Flag for U.S.A. Weather past 2 weeks in Carson City, Nevada, U.S.A.

Now
33 °F

Partly sunny.


Feels Like: 30 °F
Forecast: 9 / 40 °F
Wind: 3 mph from Southeast

Location: Reno Tahoe International Airport

Current Time: Dec 27, 2014 at 12:14:06 PM

Latest Report: Dec 27, 2014 at 11:55 AM


Visibility: 10 mi

Pressure: 30.36 "Hg

Humidity: 45%

Dew point: 14 °F

Location of Carson CityLocation

Historic Weather in Carson City — Graph

°F

Carson City temperature yesterday

Maximum temperature yesterday: 37 °F (at 1:55 PM)
Minimum temperature yesterday: 25 °F (at 11:55 PM)
Average temperature yesterday: 31 °F

Past Weeks' High & Low Weather Summary

 TemperatureHumidityPressure
High62 °F (Dec 21, 11:55 AM)100% (Dec 15, 9:55 AM)30.42 "Hg (Dec 15, 9:55 AM)
Low18 °F (Dec 27, 6:55 AM)32% (Dec 24, 10:55 AM)29.67 "Hg (Dec 24, 2:55 PM)
Average39 °F68%30.08 "Hg
* Reported Dec 12 10:55 AM — Dec 27 10:55 AM, Carson City, Weather by CustomWeather, © 2014

Note: Actual official high and low records may vary slightly from our data, if they occured in-between our weather recording intervals... More about our weather records

Advertising

Carson City weather history for previous 24 hours

 ConditionsComfort  
Time TempWeatherWind HumidityBarometerVisibility
10:55 AM
Dec 27
31 °FBroken clouds.3 mph49%30.40 "Hg10 mi
9:55 AM26 °FBroken clouds.No wind60%30.42 "Hg10 mi
8:55 AM25 °FMore clouds than sun.No wind63%30.41 "Hg10 mi
7:55 AM19 °FBroken clouds.No wind77%30.42 "Hg10 mi
6:55 AM18 °FPassing clouds.5 mph80%30.42 "Hg10 mi
5:55 AM19 °FPassing clouds.No wind77%30.41 "Hg10 mi
4:55 AM21 °FPassing clouds.6 mph74%30.39 "Hg10 mi
3:55 AM21 °FPassing clouds.No wind74%30.40 "Hg10 mi
2:55 AM21 °FPassing clouds.No wind74%30.39 "Hg10 mi
1:55 AM23 °FClear.6 mph72%30.38 "Hg10 mi
12:55 AM24 °FClear.No wind68%30.36 "Hg10 mi
11:55 PM
Dec 26
25 °FClear.5 mph69%30.37 "Hg10 mi
10:55 PM26 °FClear.3 mph63%30.36 "Hg10 mi
9:55 PM26 °FClear.No wind63%30.36 "Hg10 mi
8:55 PM28 °FClear.No wind58%30.34 "Hg10 mi
7:55 PM29 °FPassing clouds.5 mph56%30.34 "Hg10 mi
6:55 PM31 °FPassing clouds.5 mph52%30.33 "Hg10 mi
5:55 PM31 °FPassing clouds.3 mph52%30.31 "Hg10 mi
4:55 PM34 °FPassing clouds.8 mph46%30.29 "Hg10 mi
3:55 PM35 °FPartly sunny.5 mph44%30.28 "Hg10 mi
2:55 PM37 °FPartly sunny.8 mph42%30.25 "Hg10 mi
1:55 PM37 °FPartly sunny.9 mph41%30.23 "Hg10 mi
12:55 PM36 °FPartly sunny.7 mph42%30.24 "Hg10 mi
Weather by CustomWeather, © 2014

See weather overviewHow to use our weather pages